Hourly Data Report for December 13, 2017

TORONTO CITY
ONTARIO

43°40'00.000" N
79°24'00.000" W
112.50 m
6158355
71508
XTO

Download Data

Hourly Data (December 2017)
Hourly Data Report for December 13, 2017
TIME
LST
Temp Definition
°C
Dew Point Definition
°C
Rel Hum Definition
%
Precip. Amount Definition
mm

Wind Dir Definition
10's deg

Wind Spd Definition
km/h
Visibility Definition
km
Stn Press Definition
kPa
Hmdx Definition


Wind Chill Definition


Weather Definition


00:00 -10.9 -15.3 70 0.0 LegendMM LegendMM   98.95     LegendNANA
01:00 -11.4 -16.0 68 0.0 LegendMM LegendMM   98.94     LegendNANA
02:00 -11.6 -15.4 74 0.0 LegendMM LegendMM   98.97     LegendNANA
03:00 -11.5 -14.5 78 0.0 LegendMM LegendMM   99.04     LegendNANA
04:00 -11.5 -14.7 77 0.2 LegendMM LegendMM   99.08     LegendNANA
05:00 -11.6 -15.0 76 0.0 LegendMM LegendMM   99.15     LegendNANA
06:00 -12.3 -15.9 74 0.0 LegendMM LegendMM   99.20     LegendNANA
07:00 -12.8 -16.0 77 0.0 LegendMM LegendMM   99.21     LegendNANA
08:00 -12.8 -15.7 79 0.0 LegendMM LegendMM   99.25     LegendNANA
09:00 -11.8 -15.6 73 0.0 LegendMM LegendMM   99.29     LegendNANA
10:00 -10.3 -15.8 64 0.0 LegendMM LegendMM   99.31     LegendNANA
11:00 -9.6 -15.6 62 0.0 LegendMM LegendMM   99.33     LegendNANA
12:00 -8.3 -15.5 56 0.0 LegendMM LegendMM   99.23     LegendNANA
13:00 -7.0 -16.0 49 0.0 LegendMM LegendMM   99.17     LegendNANA
14:00 -7.0 -15.7 50 0.0 LegendMM LegendMM   99.10     LegendNANA
15:00 -6.8 -15.6 49 0.0 LegendMM LegendMM   99.05     LegendNANA
16:00 -7.1 -14.9 54 0.0 LegendMM LegendMM   99.04     LegendNANA
17:00 -7.3 -14.7 56 0.0 LegendMM LegendMM   98.97     LegendNANA
18:00 -7.8 -14.7 58 0.0 LegendMM LegendMM   98.90     LegendNANA
19:00 -7.8 -14.3 59 0.0 LegendMM LegendMM   98.88     LegendNANA
20:00 -8.0 -14.3 61 0.0 LegendMM LegendMM   98.91     LegendNANA
21:00 -8.4 -13.5 66 0.0 LegendMM LegendMM   98.92     LegendNANA
22:00 -8.6 -13.2 69 0.0 LegendMM LegendMM   98.89     LegendNANA
23:00 -8.9 -12.3 76 0.0 LegendMM LegendMM   98.84     LegendNANA

Notes on Data Quality.

Legend

  • E = Estimated
  • M = Missing
  • NA = Not Available*
  • [empty] = Indicates an unobserved value
Date modified: